STARLINK-2445

Last updated on Sat May 08 2021 00:02:04 GMT+0000 (Coordinated Universal Time)

1 48109U 21027T 21127.58334491 -.00066307 00000-0 -47024-3 0 9998 2 48109 53.0471 191.7296 0002418 22.2803 288.4074 15.73265542 1779

Satellite not in orbit